Location: Caffiers
(50.8399°N, 1.8116°E)
Time: 12:35:15
(UTC+00:00)

Daily predictions for brighter satellites

Satellite Brightness Start Highest point End
(mag) Time Altitude Azimuth Time Altitude Azimuth Time Altitude Azimuth
Cosmos 1980 3.8 16:20:14 10° SSW 16:25:57 87° WNW 16:31:41 10° NNE
NOAA 6 4.1 16:22:17 10° SSE 16:27:21 62° ENE 16:32:26 10° N
Okean O Rocket 2.3 16:23:32 10° SE 16:27:27 33° ENE 16:31:23 10° N
Cosmos 1633 Rocket 3.6 16:25:05 10° N 16:29:08 35° ENE 16:33:08 10° SE
ISS -3.7 16:25:47 10° W 16:29:10 81° N 16:32:32 10° E
H-2A R/B 2.7 16:27:55 10° SSE 16:31:46 83° ENE 16:35:42 10° NNW
Meteor 2-12 Rocket 4.5 16:27:07 10° N 16:33:16 67° ENE 16:39:21 10° SSE
Cosmos 1933 4.3 16:29:49 10° SSE 16:33:20 29° E 16:36:52 10° NNE
Spot 2 4.4 16:29:21 10° SSE 16:34:08 84° ENE 16:39:11 10° NNW
Cosmos 2218 Rocket 4.3 16:29:38 10° N 16:35:27 42° ENE 16:41:14 10° SE
Nadezhda 1 Rocket 4.1 16:29:12 10° S 16:35:35 85° E 16:42:02 10° N
Cosmos 2366 rocket 4.4 16:30:35 10° N 16:36:24 41° ENE 16:42:10 10° SE
Meteor 1-25 Rocket 4.4 16:31:50 10° N 16:37:19 49° ENE 16:42:49 10° SE
ERS-2 4.2 16:36:39 10° ENE 16:37:41 11° E 16:38:44 10° ESE
Cosmos 1867 3.7 16:33:39 10° SSW 16:39:03 70° SE 16:44:31 10° NE
Envisat 3.0 16:38:29 10° SSE 16:43:34 83° ENE 16:48:41 10° NNW
SL-08 R/B 4.3 16:39:54 10° N 16:44:36 48° WNW 16:49:12 10° SW
Lacrosse 5 rocket 1.3 16:43:34 10° SW 16:47:09 53° SE 16:50:15 13° ENE
Cosmos 2322 Rocket 4.4 16:49:38 10° NW 16:52:18 13° NNW 16:54:59 10° N
YAOGAN 6 2.5 16:48:57 10° SSE 16:52:34 81° ENE 16:56:11 10° N
Cosmos 2297 4.0 16:47:12 10° NNW 16:52:54 77° WSW 16:58:37 10° SSE
Cosmos 1606 2.7 16:51:01 10° S 16:54:54 82° E 16:58:48 10° NNE
CZ-4B R/B 2.8 16:56:26 15° ENE 16:57:25 17° E 16:59:36 10° SE
AQUARIUS 4.2 16:53:21 10° SSE 16:57:47 61° ENE 17:02:14 10° N
FengYun 1-2 T 4.3 16:52:33 10° SE 16:57:52 53° ENE 17:03:13 10° N
Landsat 5 3.6 16:54:12 10° NNE 16:58:40 72° ESE 17:03:11 10° S
SL-16 R/B 2.3 16:53:34 10° SSW 16:59:09 64° ESE 17:04:46 10° NE
BREEZE-M DEB (TANK) 3.6 17:00:15 10° SSW 17:02:16 20° SSE 17:03:26 14° ESE
Cosmos 1500 4.4 17:01:37 10° NNE 17:04:38 22° ENE 17:07:39 10° ESE
SMAP 3.0 17:02:08 10° SSE 17:06:48 82° ENE 17:11:29 10° NNW
Sich 1 3.8 17:02:30 10° NNW 17:06:48 56° W 17:11:02 10° S
Cosmos 1656 Rocket 4.1 17:03:34 10° NNW 17:08:54 40° NE 17:14:07 10° ESE
CZ-4C R/B 3.2 17:06:05 10° NNE 17:09:44 80° WNW 17:13:21 10° SSW
YAOGAN 1 3.9 17:09:19 16° E 17:10:45 19° ENE 17:13:48 10° NNE
Cosmos 1470 Rocket 3.6 17:07:29 10° N 17:11:44 53° ENE 17:15:58 10° SSE
Cosmos 783 Rocket 4.5 17:07:03 10° SSW 17:12:20 77° ESE 17:17:38 10° NNE
Cosmos 1151 Rocket 3.0 17:09:09 10° S 17:13:21 59° E 17:17:33 10° NNE
Cosmos 864 Rocket 4.4 17:11:11 10° N 17:17:32 74° ENE 17:23:46 10° SSE
Cosmos 2263 4.3 17:12:20 10° NNW 17:17:52 55° NE 17:23:21 10° SE
SL-8 Rocket 4.1 17:14:28 10° N 17:20:45 86° W 17:27:03 10° S
Cosmos 1515 Rocket 4.0 17:17:21 10° SSE 17:21:25 39° E 17:25:08 12° NNE
Cosmos 2341 Rocket 4.4 17:16:02 10° NNW 17:22:17 67° W 17:28:33 10° S
CZ-2C R/B 3.6 17:18:27 10° ESE 17:22:41 30° ENE 17:26:50 10° N
Cosmos 1238 Rocket 3.9 17:20:31 10° NNE 17:23:50 25° ENE 17:27:39 10° SE
COSMO-SKYMED 1 3.4 17:23:06 21° NE 17:25:04 29° E 17:28:52 10° SSE
TELKOM 3 3.1 17:22:48 10° W 17:25:35 71° S 17:26:18 40° ESE
Cosmos 2360 Rocket 4.4 17:25:46 10° NW 17:28:13 13° NNW 17:30:40 10° N
X-37B 2.5 17:25:46 10° SW 17:28:13 21° SSE 17:29:28 17° SE
Cosmos 2333 Rocket 4.2 17:24:49 10° WNW 17:28:49 19° NNW 17:32:51 10° NNE
USA 281 3.5 17:23:42 10° ESE 17:29:51 45° NE 17:36:02 10° NNW
USA 81 4.1 17:25:05 10° N 17:30:24 84° W 17:35:42 10° S
Cosmos 2219 Rocket 4.2 17:26:46 10° W 17:30:47 20° NW 17:34:49 10° NNE
Cosmos 2228 Rocket 4.0 17:30:16 10° SSE 17:34:05 28° E 17:34:28 27° E
Helios 1A Rocket 3.6 17:33:25 28° E 17:34:06 30° ENE 17:37:40 10° N
CORIOLIS 4.5 17:28:49 10° S 17:34:13 72° WSW 17:39:42 10° NNW
Meteor 1-4 Rocket 2.4 17:31:42 10° S 17:35:15 66° E 17:37:26 21° NNE
Cosmos 1821 Rocket 4.1 17:30:20 10° N 17:36:24 50° ENE 17:42:30 10° SSE
H-2A R/B 2.8 17:35:17 21° ESE 17:37:36 29° ENE 17:41:58 10° N
Cosmos 1812 4.1 17:34:40 10° SSE 17:36:35 21° ESE 17:36:35 21° ESE
USA 267 3.3 17:34:11 20° E 17:38:46 63° NNE 17:45:13 10° WNW
Meteor 1-11 Rocket 4.3 17:34:04 10° N 17:39:22 36° ENE 17:44:43 10° SE
NOSS 3-3 (A) 4.5 17:32:32 10° NW 17:39:45 67° NE 17:47:55 10° ESE
NOSS 3-3 (C) 4.5 17:32:36 10° NW 17:39:50 66° NE 17:47:58 10° ESE
Cosmos 1939 Rocket 2.7 17:36:07 10° SSE 17:39:58 65° ENE 17:43:54 10° N
Cosmos 1328 Rocket 3.5 17:36:57 10° SSW 17:41:17 84° W 17:45:40 10° N
Cosmos 44 Rocket 3.4 17:36:21 10° NW 17:41:29 61° NE 17:45:08 19° ESE
Cosmos 1933 Rocket 3.5 17:37:20 10° N 17:41:50 73° E 17:46:17 10° SSE
CZ-4 R/B 1.9 17:41:27 32° E 17:42:16 36° ENE 17:46:02 10° N
Cosmos 1602 4.0 17:40:30 10° NNW 17:44:25 69° W 17:48:16 10° S
CSL-04 Rocket 4.3 17:44:05 29° E 17:45:07 31° ENE 17:49:43 10° N
IRS-1C Rocket 4.0 17:41:10 10° SSE 17:46:24 68° ENE 17:51:40 10° NNW
SL-24 R/B 4.2 17:49:33 39° ESE 17:49:33 39° ESE 17:52:46 10° SSE
Cosmos 2181 Rocket 4.3 17:42:59 10° SSW 17:49:23 73° WNW 17:55:44 10° N
NOAA 11 4.5 17:44:51 10° S 17:50:15 69° WSW 17:55:43 10° NNW
Cosmos 2237 Rocket 3.8 17:45:38 10° WSW 17:50:33 30° NW 17:55:29 10° NNE
Cosmos 1680 Rocket 4.5 17:46:24 10° SSE 17:50:18 27° ESE 17:50:18 27° ESE
CZ-4B R/B 4.3 17:46:33 10° S 17:51:36 44° W 17:56:40 10° NNW
Cosmos 1603 3.9 17:49:22 10° S 17:54:46 50° ESE 17:56:56 33° ENE
Meteor 1-26 Rocket 4.4 17:48:54 10° SSW 17:54:57 81° WNW 18:00:59 10° N
CZ-2D R/B 3.1 17:53:01 10° SSE 17:56:49 71° ENE 18:00:40 10° N
H-2A R/B 3.2 17:52:58 10° N 17:56:57 42° WNW 18:00:59 10° SW
Cosmos 2369 Rocket 2.6 17:51:58 10° NW 17:57:38 66° WSW 18:03:13 10° SSE
Cosmos 1943 3.4 17:52:46 10° S 17:58:10 47° ESE 17:59:58 35° ENE
Cosmos 1943 Rocket 3.5 17:53:34 10° NW 17:58:46 41° WSW 18:03:58 10° S
Meteor 1-5 Rocket 4.2 17:54:02 10° N 17:59:59 73° ENE 18:05:44 10° SSE
Cosmos 1538 Rocket 4.0 17:54:53 10° SSW 18:00:16 84° ESE 18:03:44 23° NNE
Cosmos 1371 Rocket 4.2 17:57:51 10° NNW 18:02:51 45° ENE 18:03:41 42° E
Cosmos 1782 3.1 17:59:44 10° SSW 18:03:40 65° WNW 18:06:45 16° N
Okean O Rocket 3.4 17:59:50 10° SSW 18:03:47 33° W 18:07:47 10° NNW
Okean-O 2.5 18:00:50 10° SSE 18:05:12 63° ENE 18:09:37 10° N
ISS -3.8 18:02:40 10° WNW 18:05:55 82° W 18:05:55 82° W
ARGOS 3.6 18:08:31 38° NE 18:08:31 38° NE 18:13:02 10° N
CENTAUR R/B 3.4 18:03:20 10° S 18:07:44 28° ESE 18:07:44 28° ESE
Cosmos 2056 Rocket 3.7 18:04:03 10° NNW 18:09:09 46° ENE 18:09:29 45° ENE
ERS-2 2.2 18:10:45 46° N 18:11:43 75° WNW 18:15:22 10° SSW
SKYMED 2 3.4 18:11:44 38° NNE 18:13:22 83° ESE 18:17:42 10° SSW
NOSS 3-2 (C) 4.3 18:11:29 10° S 18:15:09 27° SE 18:15:09 27° SE
Cosmos 1869 Rocket 3.4 18:12:05 10° N 18:16:35 70° ENE 18:17:48 46° SE
BREEZE-M DEB (TANK) 4.2 18:13:06 10° SW 18:19:44 32° SSE 18:19:59 32° SSE
Cosmos 1605 Rocket 4.5 18:17:19 10° N 18:21:48 38° NE 18:21:48 38° NE
Cosmos 1624 Rocket 3.9 18:20:40 10° NNW 18:25:56 61° ENE 18:25:56 61° ENE
Lacrosse 5 rocket 2.1 18:22:54 10° W 18:25:53 38° NW 18:25:53 38° NW
Meteor 1-10 Rocket 4.0 18:21:21 10° S 18:26:57 71° E 18:28:50 42° NNE
BREEZE-M DEB (TANK) 4.2 18:25:42 10° W 18:26:38 24° W 18:26:38 24° W
Cosmos 371 Rocket 3.2 18:23:22 10° NNW 18:28:01 68° NE 18:28:01 68° NE
CZ-4B R/B 2.9 18:29:34 31° WNW 18:29:45 31° WNW 18:32:35 10° SW
NOSS 3-2 (A) 3.3 18:35:37 10° SSW 18:41:16 64° SE 18:41:27 64° ESE
SL-16 R/B 3.7 18:38:45 10° WSW 18:43:42 30° NW 18:46:58 18° N
Cosmos 1535 Rocket 4.3 18:37:48 10° N 18:43:58 81° E 18:50:06 10° SSE
YAOGAN 1 2.9 18:46:28 62° W 18:46:28 62° W 18:50:45 10° NNW
USA 215 3.3 18:46:42 55° SE 18:47:09 56° SE 18:53:33 10° SW
MOS 1 Rocket 3.6 18:52:44 81° NNW 18:52:59 86° WNW 18:58:22 10° SSW
USA 238 DEB 3.5 18:54:03 10° SSW 19:00:35 75° SE 19:00:35 75° SE
USA 238 3.5 18:54:08 10° SSW 19:00:39 74° SE 19:00:39 74° SE
COSMO-SKYMED 1 4.0 19:00:19 32° NW 19:01:17 36° WNW 19:05:15 10° SW
Cosmos 158 Rocket 4.4 18:56:47 10° SSW 19:00:46 55° WSW 19:00:46 55° WSW
CZ-2C R/B 4.0 18:57:47 10° S 19:02:28 42° W 19:07:03 10° NNW
Cosmos 1238 Rocket 4.5 18:59:44 10° NNW 19:03:23 36° W 19:07:43 10° SSW
X-37B 4.0 19:01:33 10° WSW 19:01:44 11° WSW 19:01:44 11° WSW
Cosmos 923 Rocket 4.3 19:00:31 10° SW 19:05:13 62° W 19:05:13 62° W
Cosmos 1934 Rocket 4.2 18:59:33 10° NNW 19:05:54 70° W 19:12:09 10° S
Cosmos 2228 Rocket 4.5 19:07:58 10° SW 19:12:02 37° WNW 19:12:02 37° WNW
USA 281 3.9 19:07:58 10° S 19:14:18 50° WSW 19:20:42 10° NW
H-2A R/B 2.8 19:15:55 44° SW 19:16:50 49° W 19:21:49 10° NNW
CZ-4 R/B 3.5 19:17:28 25° W 19:17:28 25° W 19:20:48 10° NW
USA 267 3.3 19:21:32 68° SSW 19:21:47 69° SW 19:28:20 10° WNW
CSL-04 Rocket 4.4 19:25:43 48° W 19:25:43 48° W 19:30:25 10° NNW
Cosmos 1943 4.4 19:37:04 10° WSW 19:41:49 38° WNW 19:41:49 38° WNW
CENTAUR R/B 3.9 19:52:05 10° SW 19:54:58 31° SW 19:54:58 31° SW
